Regional Weather Roundup
Issued by NWS

Home | Current Version | Previous Version | Graphics & Text | Print | Product List | Glossary On
Versions: 1 2 3 4 5 6 7 8 9 10 11 12 13 14 15 16 17 18 19 20 21 22 23 24 25 26 27 28 29 30 31 32 33 34 35 36 37 38 39 40 41 42 43 44 45 46 47 48 49 50
000
ASUS43 KLOT 290803
RWRIL

ILLINOIS REGIONAL WEATHER ROUNDUP
NATIONAL WEATHER SERVICE CHICAGO/ROMEOVILLE IL
300 AM CDT SUN MAY 29 2016

NOTE: "FAIR" INDICATES FEW OR NO CLOUDS BELOW 12,000 FEET WITH NO
SIGNIFICANT WEATHER AND/OR OBSTRUCTIONS TO VISIBILITY.

* THESE STATIONS ARE NOT UNDER NWS QUALITY CONTROL. THEY ALSO MAY NOT
  REPORT WEATHER SUCH AS PRECIPITATION OR FOG.

ILZ001-002-007-009-015-016-024-290900-
NORTHWEST ILLINOIS

CITY           SKY/WX    TMP DP  RH WIND       PRES   REMARKS
MOLINE         CLEAR     68  58  70 S9        29.93F
STERLING*      PTCLDY    66  62  87 VRB5      29.94F
$$

ILZ003-004-008-010-011-017-018-290900-
NORTH CENTRAL ILLINOIS

CITY           SKY/WX    TMP DP  RH WIND       PRES   REMARKS
ROCKFORD       PTCLDY    67  62  84 S8        29.95F
FREEPORT*      PTCLDY    64  60  87 S10       29.94F
ROCHELLE*      CLEAR     64  62  93 S10       29.95F
$$

ILZ005-006-012>014-019>023-290900-
NORTHEAST ILLINOIS

CITY           SKY/WX    TMP DP  RH WIND       PRES   REMARKS
CHICAGO-OHARE  CLOUDY    65  61  87 SW7       29.94S
CHICAGO-MIDWAY MOCLDY    68  57  68 SW8       29.95S
AURORA         MOCLDY    64  61  90 SW9       29.96S
LANSING*       PTCLDY    66  56  70 S7        29.98R
WAUKEGAN       PTCLDY    64  62  93 SW8       29.92S
DUPAGE AIRPORT MOCLDY    64  60  87 SW9       29.95S
WHEELING       MOCLDY    65  61  87 S6        29.95S
NORTHERLY ISL    N/A     68  56  65 SW9         N/A
NORTHERLY ISL    N/A     68  56  65 SW9         N/A
$$

LMZ740>746-290900-
SOUTHERN LAKE MICHIGAN

STATION/POSITION SKY/WX   TEMP    WIND        PRES    VSBY  WAVE
                          AIR SEA DIR/SP/G                  HT/PER
                          (F)     (DEG/KT/KT) (MB)    (MI)  (FT/S)
SOUTHERN BUOY              54 50  170/  8/ 10 1013.7          1/ 4
WILMETTE HARBOR            59 52  210/  4/  8   N/A           1/ 3
HARRISON CRIB              70     210/ 11/ 13   N/A
BURNHAM HARBOR             68     240/  7/  9   N/A
CALUMET HARBOR             67     200/  6/  9 1013.7F
BURNS HARBOR               70     170/  5/ 10 1014.9F
MICHIGAN CITY              71     190/ 10/ 11   N/A
MICHIGAN CITY 6N           62 56  220/  8/ 10   N/A           1/ 2
ST. JOSEPH                 63 61  240/  4/  6   N/A           2/ 3
$$

ILZ025>027-034>036-040-047-049-050-058-095>099-290900-
WEST-CENTRAL ILLINOIS

CITY           SKY/WX    TMP DP  RH WIND       PRES   REMARKS
QUINCY         CLEAR     63  59  87 SW7       30.00R
MACOMB*        CLEAR     63  60  89 SW7       30.00S
PITTSFIELD*    CLEAR     67  63  86 SW5       30.02S
$$

ILZ028>032-037-038-041>044-048-051>054-059>061-290900-
CENTRAL ILLINOIS

CITY           SKY/WX    TMP DP  RH WIND       PRES   REMARKS
BLOOMINGTON    PTCLDY    64  64 100 SW6       30.02S
DECATUR        CLEAR     68  65  90 SW6       30.02R
PEORIA         CLEAR     64  62  93 S3        29.98F
SPRINGFIELD    CLOUDY    70  65  84 CALM      30.01S
TAYLORVILLE    NOT AVBL
$$

ILZ033-039-045-046-055>057-062-063-290900-
EAST-CENTRAL ILLINOIS

CITY           SKY/WX    TMP DP  RH WIND       PRES   REMARKS
CHAMPAIGN      PTCLDY    65  61  87 E6        30.03S
MATTOON        PTCLDY    70  65  84 S6        30.02S
$$

ILZ079-100>102-290900-
SOUTHWEST ILLINOIS

CITY           SKY/WX    TMP DP  RH WIND       PRES   REMARKS
BELLEVILLE     CLEAR     68  68 100 CALM      30.01S
CAHOKIA*       CLOUDY    69  64  84 CALM      30.02R
SPARTA*        CLEAR     69  67  92 SW5       30.04S
$$

ILZ064>066-069>071-074>076-080>082-084>086-088>090-092>094-290900-
SOUTH-CENTRAL ILLINOIS

CITY           SKY/WX    TMP DP  RH WIND       PRES   REMARKS
CARBONDALE     PTCLDY    67  65  93 CALM      30.03S FOG
EFFINGHAM*     CLEAR     67  67 100 CALM      30.05S
MT. VERNON     MOCLDY    64  61  88 CALM      30.05R
SALEM*         CLEAR     70  67  91 CALM      30.03S
$$

ILZ067-068-072-073-078-083-087-091-290900-
SOUTHEAST ILLINOIS

CITY           SKY/WX    TMP DP  RH WIND       PRES   REMARKS
LAWRENCEVILLE  CLOUDY    68  67  96 SW5       30.05R
FLORA*         PTCLDY    69  67  94 CALM      30.05R
HARRISBURG*    CLEAR     67  67  98 CALM      30.04S
ROBINSON*      CLOUDY    65  65  97 CALM      30.06R
$$

ABBREVIATIONS USED IN REMARKS
   TC - TEMPERATURE IN CELSIUS
  WCI - WIND CHILL INDEX
   HX - HEAT INDEX
  VSB - VISIBILITY
$$





USA.gov is the U.S. government's official web portal to all federal, state and local government web resources and services.